Regional Weather Roundup
Issued by NWS Sioux Falls, SD

Home | Current Version | Previous Version | Text Only | Print | Product List | Glossary Off
Versions: 1 2 3 4 5 6 7 8 9 10 11 12 13 14 15 16 17 18 19 20 21 22 23 24 25 26 27 28 29 30 31 32 33 34 35 36 37 38 39 40 41 42 43 44 45 46 47 48 49 50

000
ASUS43 KFSD 282002
RWRFSD

WEATHER ROUNDUP FOR SE SOUTH DAKOTA/SW MINNESOTA/NW IOWA
NATIONAL WEATHER SERVICE SIOUX FALLS SD
200 PM CST WED JAN 28 2015

NOTE: "FAIR" INDICATES FEW OR NO CLOUDS BELOW 12,000 FEET WITH NO
SIGNIFICANT WEATHER AND OR OBSTRUCTIONS TO VISIBILITY.


SDZ038>040-050-052>070-282100-
SOUTHEAST SOUTH DAKOTA

CITY           SKY/WX    TMP DP  RH WIND       PRES   REMARKS
CHAMBERLAIN    NOT AVBL
HURON          MOSUNNY   42  35  76 N9        29.69F
MADISON        FAIR      41  41 100 SW6       29.67F
MITCHELL       MOSUNNY   47  38  71 NW17      29.70R
SIOUX FALLS    PTSUNNY   43  35  73 S6        29.67F
WINNER         FAIR      63  33  32 NW24      29.73S
YANKTON        MOSUNNY   54  36  50 W14       29.66F
$$

MNZ071-072-080-081-089-090-097-098-282100-
SOUTHWEST MINNESOTA

CITY           SKY/WX    TMP DP  RH WIND       PRES   REMARKS
FAIRMONT       CLOUDY    34  28  80 SE17      29.74F WCI  23
JACKSON        CLOUDY    32  32 100 SE8       29.73F FOG     WCI  25
LUVERNE        CLOUDY    37  32  81 S10       29.69F HAZE
MARSHALL       CLOUDY    34  28  80 S10       29.74F WCI  26
MONTEVIDEO     CLOUDY    34  34 100 S7        29.76S FOG     WCI  28
PIPESTONE      CLOUDY    36  34  93 S9        29.68S FOG
REDWOOD FALLS  CLOUDY    34  31  88 SE12      29.75F FOG     WCI  25
TRACY          CLOUDY    34  32  93 S9        29.72S FOG     WCI  26
WINDOM         CLOUDY    34  32  93 SE16      29.71F FOG     WCI  23
WORTHINGTON    CLOUDY    32  28  86 SE12      29.70F WCI  23
$$

IAZ001>003-012>014-020>022-031-032-NEZ013-014-SDZ071-282100-
NORTHWEST IOWA

CITY           SKY/WX    TMP DP  RH WIND       PRES   REMARKS
ESTHERVILLE    CLOUDY    31  30  96 SE17      29.73F FOG     WCI  19
SIOUX CITY     PTSUNNY   48  36  63 S7        29.68F
SPENCER        CLOUDY    35  31  85 SE13      29.71F FOG     WCI  26
$$

ABBREVIATIONS USED IN REMARKS
   TC - TEMPERATURE IN CELSIUS
  WCI - WIND CHILL INDEX
   HX - HEAT INDEX
  VSB - VISIBILITY




USA.gov is the U.S. government's official web portal to all federal, state and local government web resources and services.